Regional Weather Roundup
Issued by NWS

Home | Current Version | Previous Version | Text Only | Print | Product List | Glossary On
Versions: 1 2 3 4 5 6 7 8 9 10 11 12 13 14 15 16 17 18 19 20 21 22 23 24 25 26 27 28
000
ASUS45 KCYS 261910
RWRWY

WYOMING REGIONAL WEATHER ROUNDUP
NATIONAL WEATHER SERVICE CHEYENNE WY
100 PM MDT TUE SEP 26 2017

NOTE:  "FAIR" INDICATES FEW OR NO CLOUDS BELOW 12,000 FEET
WITH NO SIGNIFICANT WEATHER AND/OR OBSTRUCTIONS TO VISIBILITY.

WYZ001-262000-
YELLOWSTONE NATIONAL PARK

CITY           SKY/WX    TMP DP  RH WIND       PRES   REMARKS
LK YELLOWSTONE   N/A     44  33  65 SE7       30.30R
W YELLOWSTONE  NOT AVBL

$$
WYZ002>013-054>058-071-098>099-262000-
NORTHERN WYOMING

CITY           SKY/WX    TMP DP  RH WIND       PRES   REMARKS
JACKSON        FAIR      50  31  48 VRB3      30.25F
CODY           FAIR      57  32  38 NE10      30.21S
GREYBULL       FAIR      56  40  55 S5        30.19F
WORLAND        FAIR      57  37  47 N6        30.20S
SHERIDAN       FAIR      61  40  45 NW12      30.17F
BUFFALO        FAIR      58  34  40 VRB6      30.21S
GILLETTE       FAIR      57  34  41 NW13      30.18R
HULETT         FAIR      54  34  47 NW9G18    30.18R
NEWCASTLE      FAIR      55  36  47 W10G16    30.19S

$$
WYZ014>020-022>026-101>103-262000-
CENTRAL WYOMING

CITY           SKY/WX    TMP DP  RH WIND       PRES   REMARKS
BIG PINEY      FAIR      47  25  42 SE8       30.26F
PINEDALE       FAIR      46  27  46 E3        30.26F
DUBOIS         FAIR      50  27  40 E3        30.23F
LANDER         FAIR      55  22  27 CALM      30.22S
RIVERTON       FAIR      54  30  40 NE5       30.22F
CASPER         PTSUNNY   55  29  36 SW9       30.21S
DOUGLAS        FAIR      59  27  29 NW10G20   30.20F

$$
WYZ021-027>030-104>119-262000-
SOUTHERN WYOMING

CITY           SKY/WX    TMP DP  RH WIND       PRES   REMARKS
EVANSTON       FAIR      47  28  47 CALM      30.23F
FORT BRIDGER   FAIR      49  28  44 E5        30.28S
ROCK SPRINGS   FAIR      47  21  35 CALM      30.25F
DIXON          FAIR      55  27  34 W6        30.23F
RAWLINS        FAIR      50  32  50 VRB6      30.24S
SARATOGA       FAIR      50  27  40 E5        30.25S
LARAMIE        FAIR      51  25  36 VRB5      30.23S
CHEYENNE       FAIR      56  28  34 VRB6      30.22S
TORRINGTON     FAIR      61  29  29 N8        30.17F
PINE BLUFFS    FAIR      55  32  41 CALM      30.21S

$$




USA.gov is the U.S. government's official web portal to all federal, state and local government web resources and services.